SCP
0 0 0 0 0 0 0 0 0 0 0 0 0 0 0 0 0 0 0 0 -0 0 0 0 0 0 0 0 0 0 0 0 0 0 0 0 0 0 0 0 0 0 0
0 0 0 0 0 0 0 0 0 0 0 0 0 0 0 0 0 0 0 0 0 0 0 0 0 0 0 0 0 0 0 0 0 0 0 0 0 0 0 0 0 0 0
0 0 0 0 0 0 0 0 0 0 0 0 0 0 0 0 0 0 0 0 0 0 0 0 0 0 0 0 0 0 0 0 0 0 0 0 0 0 0 0 0 0 0
0 0 0 0 0 0 0 0 0 0 0 0 0 0 0 0 0 0 0 0 0 0 0 0 0 0 0 0 0 0 0 0 0 0 0 0 0 0 0 0 0 0 0
0 0 0 0 0 0 0 0 0 0 0 0 0 0 0 0 0 0 0 0 0 0 0 0 0 0 0 0 0 0 0 0 0 0 0 0 0 0 0 0 0 0 0
0 0 0 0 0 0 0 0 0 0 0 0 0 0 0 0 0 0 0 0 0 0 0 0 0 0 0 0 0 0 0 0 0 0 0 0 0 0 0 0 0 0 0
0 0 0 0 0 0 0 0 0 0 0 0 0 0 0 0 0 0 0 0 0 0 0 0 0 0 0 0 0 0 0 0 0 0 0 0 0 0 0 0 0 0 0
0 0 0 0 0 0 0 0 0 0 0 0 0 0 0 0 0 0 0 0 0 0 0 0 0 0 0 0 0 0 0 0 0 0 0 0 0 0 0 0 0 0 0
0 0 0 0 0 0 0 0 0 0 0 0 0 0 0 0 0 0 0 0 0 0 0 0 0 0 0 0 0 0 0 0 0 0 0 0 0 0 0 0 0 0 0
0 0 0 0 0 0 0 0 0 0 0 0 0 0 0 0 0 0 0 0 0 0 0 0 0 0 0 0 0 0 0 0 0 0 0 0 0 0 0 0 0 0 0
0 0 0 0 0 0 0 0 0 0 0 0 0 0 0 0 0 0 0 0 0 0 0 0 0 0 0 0 0 0 0 0 0 0 0 0 0 0 0 0 0 0 0
0 0 0 0 0 0 0 0 0 0 0 0 0 0 0 0 0 0 0 0 0 0 0 0 0 0 0 0 0 0 0 0 0 0 0 0 0 0 0 0 0 0 0
0 0 0 0 0 0 0 0 0 0 0 0 0 0 0 0 0 0 0 0 0 0 0 0 0 0 0 0 0 0 0 0 0 0 0 0 0 0 0 0 0 0 0
0 0 0 0 0 0 0 0 0 0 0 0 0 0 0 0 0 0 0 0 0 0 0 0 0 0 0 0 0 0 0 0 0 0 0 0 0 0 0 0 0 0 0
0 0 0 0 0 0 0 0 0 0 0 0 0 0 0 0 0 0 0 0 0 0 0 0 0 0 0 0 0 0 0 0 0 0 0 0 0 0 0 0 0 0 0
0 0 0 0 0 0 0 0 0 0 0 0 0 0 0 0 0 0 0 0 0 0 0 0 0 0 0 0 0 0 0 0 0 0 0 0 0 0 0 0 0 0 0
0 0 0 0 0 0 0 0 0 0 0 0 0 0 0 0 0 0 0 0 0 0 0 0 0 0 0 0 0 0 0 0 0 0 0 0 0 0 0 0 0 0 0
0 0 0 0 0 0 0 0 0 0 0 0 0 0 0 0 0 0 0 0 0 0 0 0 0 0 0 0 0 0 0 0 0 0 0 0 0 0 0 0 0 0 0
0 0 0 0 0 0 0 0 0 0 0 0 0 0 0 0 0 0 0 0 0 0 0 0 0 0 0 0 0 0 0 0 0 0 0 0 0 0 0 0 0 0 0
0 0 0 0 0 0 0 0 0 0 0 0 0 0 0 0 0 0 0 0 0 0 0 0 0 0 0 0 0 0 0 0 0 0 0 0 0 0 0 0 0 0 0
0 0 0 0 0 0 0 0 0 0 0 0 0 0 0 0 0 0 0 0 0 0 0 0 0 0 0 0 0 0 0 0 0 0 0 0 0 0 0 0 0 0 0
0 0 0 0 0 0 0 0 0 0 0 0 0 0 0 0 0 0 0 0 0 0 0 0 0 0 0 0 0 0 0 0 0 0 0 0 0 0 0 0 0 0 -0
0 0 0 0 0 0 0 0 0 0 0 0 0 0 0 0 0 0 0 0 0 0 0 0 0 0 0 0 0 0 0 0 0 0 0 0 0 0 0 0 0 -0 -0
0 0 0 0 0 0 0 0 0 0 0 0 0 0 0 0 0 0 0 0 0 0 0 0 0 0 0 0 0 0 0 0 0 0 0 0 0 0 0 0 0 0 0
0 0 0 0 0 0 0 0 0 0 0 0 0 0 0 0 0 0 0 0 0 0 0 0 0 0 0 0 0 0 0 0 0 0 0 0 0 0 0 0 0 0 0
0 0 0 0 0 0 0 0 0 0 0 0 0 0 0 0 0 0 0 0 0 0 0 0 0 0 0 0 0 0 0 0 0 0 0 0 0 0 0 0 0 0 0
Wind_Speed_500mb
53 57 61 55 35 26 43 43 50 46 35 39 39 32 34 35 40 46 40 32 26 36 39 39 37 39 38 39 36 37 34 33 31 30 27 27 25 25 23 22 21 19 18
59 62 68 67 49 50 42 36 44 50 51 48 39 34 38 41 45 47 39 32 30 40 37 36 37 37 35 34 34 34 33 32 30 28 26 25 23 22 21 20 18 16 15
60 65 70 66 63 53 42 54 57 48 42 44 40 40 38 43 44 37 34 36 35 35 34 38 37 36 34 33 30 30 33 30 28 27 27 26 26 25 25 24 22 19 18
60 62 65 64 64 57 54 58 63 59 55 51 46 40 37 40 44 42 43 40 33 40 38 31 33 32 33 30 29 33 37 37 33 31 31 29 29 29 29 32 33 34 33
67 65 64 66 65 61 62 64 60 46 54 52 47 42 40 41 50 44 42 43 41 36 38 37 34 29 22 26 27 28 23 19 19 22 24 26 27 26 26 24 26 25 27
66 65 66 69 74 72 65 58 54 58 57 52 49 45 44 45 40 37 50 46 43 37 33 35 35 33 30 27 17 13 9 10 3 7 9 16 19 17 15 15 14 16 19
69 69 77 78 81 75 69 61 61 60 60 59 56 53 50 45 43 45 40 42 42 40 37 33 34 36 38 34 34 31 26 20 14 6 4 6 7 7 9 11 14 15 19
75 76 78 79 75 74 67 58 56 62 62 64 64 61 43 41 44 47 48 43 42 42 40 40 39 40 41 40 40 38 35 31 28 28 23 18 16 13 8 3 6 8 11
79 86 83 80 85 73 67 62 64 67 77 74 66 52 33 26 50 49 50 50 50 47 44 44 42 40 40 40 39 40 38 36 35 34 32 29 26 25 22 19 18 17 14
86 91 93 93 83 80 71 71 66 71 74 82 78 70 52 46 51 37 58 56 52 49 46 43 40 39 37 37 39 39 37 35 34 32 31 30 29 25 23 20 19 18 20
95 85 97 97 90 83 74 71 69 71 73 81 88 86 58 47 63 59 62 65 57 50 44 41 40 41 40 40 39 36 33 32 31 29 27 26 25 24 22 20 21 20 19
106 96 88 97 97 87 83 74 65 68 75 79 82 83 73 59 73 65 70 72 60 49 43 41 42 39 37 37 36 34 34 34 32 30 28 24 18 15 12 8 5 2 4
115 105 101 102 98 91 88 79 73 71 77 81 82 81 77 55 62 58 69 75 66 54 46 44 42 41 39 38 35 35 35 32 28 25 21 17 15 12 8 7 6 7 9
125 110 107 110 99 89 79 75 72 71 73 76 80 78 76 65 53 55 68 81 66 57 50 48 44 44 42 40 38 37 34 31 29 25 22 19 16 13 12 12 11 12 14
119 118 114 111 104 97 89 83 77 74 74 75 76 75 77 74 56 45 54 75 74 48 50 55 57 54 52 48 44 40 37 34 30 26 23 20 17 16 15 15 16 19 21
113 118 118 116 113 105 98 93 83 74 74 76 75 77 80 80 75 59 53 67 65 60 58 72 67 68 59 51 45 41 38 34 30 27 24 21 18 14 10 7 7 7 11
118 117 124 119 120 114 105 99 91 78 77 76 74 79 79 83 80 65 63 66 71 69 70 82 72 69 62 54 49 44 41 38 36 32 27 21 16 11 5 0 5 8 11
111 119 114 128 120 113 108 102 96 88 84 83 77 80 82 83 80 71 70 73 71 72 76 94 79 74 63 59 53 47 45 40 38 34 27 21 16 14 11 2 8 13 15
108 112 114 120 130 117 116 104 101 93 88 86 82 87 87 85 81 76 75 74 76 76 75 87 85 78 67 61 56 52 46 44 39 34 29 26 19 10 2 3 5 8 10
109 115 109 117 125 128 118 109 108 101 93 87 80 88 88 91 87 81 81 76 84 79 80 84 82 78 69 64 58 54 51 47 43 38 30 21 15 11 7 5 7 10 13
104 102 108 118 112 130 130 122 111 112 103 93 91 93 92 90 86 81 83 83 89 86 86 92 85 80 74 70 65 58 52 47 41 34 25 20 16 11 9 9 12 14 18
102 97 106 115 110 125 128 125 116 115 111 102 102 100 97 92 88 84 83 85 95 98 98 96 89 83 76 69 61 55 51 46 39 32 26 19 14 12 14 16 16 18 21
98 99 107 106 110 118 118 119 121 120 115 109 106 107 102 97 91 87 84 88 94 96 92 89 86 81 77 72 68 69 63 53 44 36 31 27 26 24 21 20 22 21 23
101 98 98 102 109 116 119 122 119 117 117 111 112 112 109 105 98 93 95 96 98 98 93 86 79 73 71 71 70 64 57 54 49 41 37 34 30 27 25 25 26 26 27
102 99 95 96 105 107 109 110 112 109 111 113 115 115 113 109 103 101 103 105 104 101 96 87 79 71 69 64 64 64 61 53 46 42 37 35 35 33 31 31 33 30 29
97 104 98 102 100 108 110 111 107 114 117 119 117 116 115 111 107 108 112 114 113 110 106 101 92 83 81 77 71 65 56 55 50 42 39 36 36 36 36 37 29 32 29
Wind_Direction_500mb
218 212 208 198 186 226 190 197 176 171 182 184 177 168 164 168 169 170 159 152 138 139 139 142 142 139 135 137 134 132 125 122 118 114 112 105 100 94 91 86 88 80 74
221 217 210 202 202 194 214 188 185 176 182 189 180 170 167 168 166 167 155 147 150 158 151 151 145 145 140 138 134 131 129 124 118 113 108 103 97 91 85 79 75 66 52
220 218 215 211 190 186 186 199 195 191 189 190 186 175 171 176 183 173 167 154 156 152 156 155 156 150 149 141 137 137 126 122 116 112 108 102 94 86 81 74 69 63 52
213 215 217 212 193 195 190 187 190 189 187 188 181 176 172 176 180 181 173 170 170 161 160 165 163 158 153 150 142 133 126 118 113 113 108 103 96 87 81 75 70 64 62
213 213 211 210 201 191 185 184 185 188 187 183 182 175 173 177 179 181 180 172 174 168 168 163 165 161 156 155 146 123 114 121 121 117 113 101 95 91 84 76 73 67 64
208 207 205 208 202 194 189 189 190 189 191 189 182 174 175 181 191 182 174 178 173 181 173 172 174 171 164 161 167 147 139 138 96 51 97 118 108 95 74 73 62 47 41
208 201 204 205 206 197 197 190 188 192 189 188 184 176 178 183 189 196 199 195 182 186 193 191 188 184 184 184 173 174 173 183 208 247 326 11 19 19 22 17 16 16 10
209 204 206 204 203 198 203 199 201 190 193 192 185 172 169 185 195 197 198 200 195 199 202 203 203 203 200 200 199 201 201 206 203 202 208 207 206 219 236 242 301 322 325
212 204 205 205 207 205 206 211 205 203 194 191 191 178 167 188 191 200 201 204 206 208 207 210 211 214 211 212 210 213 214 214 217 220 225 233 234 234 235 236 237 236 241
212 206 203 207 209 211 214 216 210 208 202 194 192 196 190 190 182 191 203 205 206 211 212 214 214 214 210 209 212 213 214 216 219 223 227 231 237 240 243 242 249 259 266
210 213 204 209 209 211 207 213 212 207 208 206 200 196 194 190 190 187 193 200 203 207 209 212 214 212 211 211 212 211 212 212 211 215 221 226 233 237 241 249 260 266 271
209 212 211 206 207 211 210 209 213 212 212 211 210 203 197 192 190 192 189 191 193 196 201 200 198 196 200 201 206 208 209 210 210 214 217 218 215 220 218 225 221 254 302
211 209 211 207 210 213 215 210 210 212 214 212 212 212 206 205 201 198 195 181 181 182 186 194 199 203 203 201 198 199 195 196 194 190 185 176 171 181 188 214 240 261 277
213 213 212 212 212 212 210 207 211 214 216 217 213 214 210 210 212 209 199 185 171 174 182 185 190 192 190 186 184 182 186 189 189 188 189 191 193 201 216 229 245 260 276
217 214 213 215 212 210 209 206 207 211 215 215 212 212 212 209 202 198 203 195 191 171 176 176 169 180 183 183 187 193 195 196 194 195 200 204 213 223 237 257 271 277 278
217 217 215 216 215 213 211 208 206 211 215 214 212 211 210 209 213 214 207 206 208 210 183 182 182 180 183 189 193 193 194 197 199 203 207 212 214 217 225 245 273 314 337
221 225 220 218 218 215 212 210 211 210 211 214 213 213 212 210 213 211 206 206 211 216 209 184 183 180 185 187 190 194 196 201 200 199 198 196 197 197 203 40 9 356 360
223 226 222 220 219 216 214 212 215 212 213 215 218 216 213 210 210 210 209 205 210 214 208 185 182 182 185 188 192 196 197 198 199 195 191 192 188 183 181 169 9 3 359
222 222 224 222 220 221 215 215 218 218 218 218 220 219 214 211 212 209 209 206 207 204 201 193 185 188 188 192 193 192 189 189 189 186 188 191 184 187 188 6 337 313 310
218 223 225 227 222 217 216 219 218 221 221 220 221 220 217 216 214 212 211 208 204 199 201 200 193 190 194 194 192 190 187 188 185 186 185 183 179 191 210 260 292 304 307
222 224 227 223 225 219 216 218 219 220 220 220 217 219 221 221 220 218 215 207 202 200 196 193 194 194 197 198 193 186 187 188 187 187 184 183 192 208 238 272 291 288 302
221 220 225 223 226 223 218 220 222 222 220 220 218 216 218 218 218 218 217 212 203 195 191 193 197 200 201 199 194 189 193 192 190 192 192 199 208 231 251 269 282 296 301
223 227 225 227 228 226 220 220 222 225 223 219 221 216 214 213 215 215 210 207 204 200 202 200 201 204 204 205 201 196 197 201 202 196 204 204 218 227 245 260 275 287 302
225 220 221 226 226 227 225 223 222 221 223 223 223 216 217 213 212 210 205 204 202 202 203 206 209 211 211 205 202 200 197 202 205 210 217 230 228 237 245 254 270 281 295
226 224 224 222 224 224 226 225 224 221 221 220 221 215 218 215 212 208 204 201 201 202 204 206 212 208 208 203 203 204 208 213 219 222 228 237 245 249 247 252 269 279 299
228 226 224 224 223 224 226 226 225 222 217 216 215 215 217 215 211 207 203 202 201 202 203 204 205 204 205 207 211 215 219 223 230 236 243 246 252 257 268 272 258 283 292
Wind_Speed_850mb
53 57 61 55 35 26 43 43 50 46 35 39 39 32 34 35 40 46 40 32 26 36 39 39 37 39 38 39 36 37 34 33 31 30 27 27 25 25 23 22 21 19 18
59 62 68 67 49 50 42 36 44 50 51 48 39 34 38 41 45 47 39 32 30 40 37 36 37 37 35 34 34 34 33 32 30 28 26 25 23 22 21 20 18 16 15
60 65 70 66 63 53 42 54 57 48 42 44 40 40 38 43 44 37 34 36 35 35 34 38 37 36 34 33 30 30 33 30 28 27 27 26 26 25 25 24 22 19 18
60 62 65 64 64 57 54 58 63 59 55 51 46 40 37 40 44 42 43 40 33 40 38 31 33 32 33 30 29 33 37 37 33 31 31 29 29 29 29 32 33 34 33
67 65 64 66 65 61 62 64 60 46 54 52 47 42 40 41 50 44 42 43 41 36 38 37 34 29 22 26 27 28 23 19 19 22 24 26 27 26 26 24 26 25 27
66 65 66 69 74 72 65 58 54 58 57 52 49 45 44 45 40 37 50 46 43 37 33 35 35 33 30 27 17 13 9 10 3 7 9 16 19 17 15 15 14 16 19
69 69 77 78 81 75 69 61 61 60 60 59 56 53 50 45 43 45 40 42 42 40 37 33 34 36 38 34 34 31 26 20 14 6 4 6 7 7 9 11 14 15 19
75 76 78 79 75 74 67 58 56 62 62 64 64 61 43 41 44 47 48 43 42 42 40 40 39 40 41 40 40 38 35 31 28 28 23 18 16 13 8 3 6 8 11
79 86 83 80 85 73 67 62 64 67 77 74 66 52 33 26 50 49 50 50 50 47 44 44 42 40 40 40 39 40 38 36 35 34 32 29 26 25 22 19 18 17 14
86 91 93 93 83 80 71 71 66 71 74 82 78 70 52 46 51 37 58 56 52 49 46 43 40 39 37 37 39 39 37 35 34 32 31 30 29 25 23 20 19 18 20
95 85 97 97 90 83 74 71 69 71 73 81 88 86 58 47 63 59 62 65 57 50 44 41 40 41 40 40 39 36 33 32 31 29 27 26 25 24 22 20 21 20 19
106 96 88 97 97 87 83 74 65 68 75 79 82 83 73 59 73 65 70 72 60 49 43 41 42 39 37 37 36 34 34 34 32 30 28 24 18 15 12 8 5 2 4
115 105 101 102 98 91 88 79 73 71 77 81 82 81 77 55 62 58 69 75 66 54 46 44 42 41 39 38 35 35 35 32 28 25 21 17 15 12 8 7 6 7 9
125 110 107 110 99 89 79 75 72 71 73 76 80 78 76 65 53 55 68 81 66 57 50 48 44 44 42 40 38 37 34 31 29 25 22 19 16 13 12 12 11 12 14
119 118 114 111 104 97 89 83 77 74 74 75 76 75 77 74 56 45 54 75 74 48 50 55 57 54 52 48 44 40 37 34 30 26 23 20 17 16 15 15 16 19 21
113 118 118 116 113 105 98 93 83 74 74 76 75 77 80 80 75 59 53 67 65 60 58 72 67 68 59 51 45 41 38 34 30 27 24 21 18 14 10 7 7 7 11
118 117 124 119 120 114 105 99 91 78 77 76 74 79 79 83 80 65 63 66 71 69 70 82 72 69 62 54 49 44 41 38 36 32 27 21 16 11 5 0 5 8 11
111 119 114 128 120 113 108 102 96 88 84 83 77 80 82 83 80 71 70 73 71 72 76 94 79 74 63 59 53 47 45 40 38 34 27 21 16 14 11 2 8 13 15
108 112 114 120 130 117 116 104 101 93 88 86 82 87 87 85 81 76 75 74 76 76 75 87 85 78 67 61 56 52 46 44 39 34 29 26 19 10 2 3 5 8 10
109 115 109 117 125 128 118 109 108 101 93 87 80 88 88 91 87 81 81 76 84 79 80 84 82 78 69 64 58 54 51 47 43 38 30 21 15 11 7 5 7 10 13
104 102 108 118 112 130 130 122 111 112 103 93 91 93 92 90 86 81 83 83 89 86 86 92 85 80 74 70 65 58 52 47 41 34 25 20 16 11 9 9 12 14 18
102 97 106 115 110 125 128 125 116 115 111 102 102 100 97 92 88 84 83 85 95 98 98 96 89 83 76 69 61 55 51 46 39 32 26 19 14 12 14 16 16 18 21
98 99 107 106 110 118 118 119 121 120 115 109 106 107 102 97 91 87 84 88 94 96 92 89 86 81 77 72 68 69 63 53 44 36 31 27 26 24 21 20 22 21 23
101 98 98 102 109 116 119 122 119 117 117 111 112 112 109 105 98 93 95 96 98 98 93 86 79 73 71 71 70 64 57 54 49 41 37 34 30 27 25 25 26 26 27
102 99 95 96 105 107 109 110 112 109 111 113 115 115 113 109 103 101 103 105 104 101 96 87 79 71 69 64 64 64 61 53 46 42 37 35 35 33 31 31 33 30 29
97 104 98 102 100 108 110 111 107 114 117 119 117 116 115 111 107 108 112 114 113 110 106 101 92 83 81 77 71 65 56 55 50 42 39 36 36 36 36 37 29 32 29
Wind_Direction_850mb
218 212 208 198 186 226 190 197 176 171 182 184 177 168 164 168 169 170 159 152 138 139 139 142 142 139 135 137 134 132 125 122 118 114 112 105 100 94 91 86 88 80 74
221 217 210 202 202 194 214 188 185 176 182 189 180 170 167 168 166 167 155 147 150 158 151 151 145 145 140 138 134 131 129 124 118 113 108 103 97 91 85 79 75 66 52
220 218 215 211 190 186 186 199 195 191 189 190 186 175 171 176 183 173 167 154 156 152 156 155 156 150 149 141 137 137 126 122 116 112 108 102 94 86 81 74 69 63 52
213 215 217 212 193 195 190 187 190 189 187 188 181 176 172 176 180 181 173 170 170 161 160 165 163 158 153 150 142 133 126 118 113 113 108 103 96 87 81 75 70 64 62
213 213 211 210 201 191 185 184 185 188 187 183 182 175 173 177 179 181 180 172 174 168 168 163 165 161 156 155 146 123 114 121 121 117 113 101 95 91 84 76 73 67 64
208 207 205 208 202 194 189 189 190 189 191 189 182 174 175 181 191 182 174 178 173 181 173 172 174 171 164 161 167 147 139 138 96 51 97 118 108 95 74 73 62 47 41
208 201 204 205 206 197 197 190 188 192 189 188 184 176 178 183 189 196 199 195 182 186 193 191 188 184 184 184 173 174 173 183 208 247 326 11 19 19 22 17 16 16 10
209 204 206 204 203 198 203 199 201 190 193 192 185 172 169 185 195 197 198 200 195 199 202 203 203 203 200 200 199 201 201 206 203 202 208 207 206 219 236 242 301 322 325
212 204 205 205 207 205 206 211 205 203 194 191 191 178 167 188 191 200 201 204 206 208 207 210 211 214 211 212 210 213 214 214 217 220 225 233 234 234 235 236 237 236 241
212 206 203 207 209 211 214 216 210 208 202 194 192 196 190 190 182 191 203 205 206 211 212 214 214 214 210 209 212 213 214 216 219 223 227 231 237 240 243 242 249 259 266
210 213 204 209 209 211 207 213 212 207 208 206 200 196 194 190 190 187 193 200 203 207 209 212 214 212 211 211 212 211 212 212 211 215 221 226 233 237 241 249 260 266 271
209 212 211 206 207 211 210 209 213 212 212 211 210 203 197 192 190 192 189 191 193 196 201 200 198 196 200 201 206 208 209 210 210 214 217 218 215 220 218 225 221 254 302
211 209 211 207 210 213 215 210 210 212 214 212 212 212 206 205 201 198 195 181 181 182 186 194 199 203 203 201 198 199 195 196 194 190 185 176 171 181 188 214 240 261 277
213 213 212 212 212 212 210 207 211 214 216 217 213 214 210 210 212 209 199 185 171 174 182 185 190 192 190 186 184 182 186 189 189 188 189 191 193 201 216 229 245 260 276
217 214 213 215 212 210 209 206 207 211 215 215 212 212 212 209 202 198 203 195 191 171 176 176 169 180 183 183 187 193 195 196 194 195 200 204 213 223 237 257 271 277 278
217 217 215 216 215 213 211 208 206 211 215 214 212 211 210 209 213 214 207 206 208 210 183 182 182 180 183 189 193 193 194 197 199 203 207 212 214 217 225 245 273 314 337
221 225 220 218 218 215 212 210 211 210 211 214 213 213 212 210 213 211 206 206 211 216 209 184 183 180 185 187 190 194 196 201 200 199 198 196 197 197 203 40 9 356 360
223 226 222 220 219 216 214 212 215 212 213 215 218 216 213 210 210 210 209 205 210 214 208 185 182 182 185 188 192 196 197 198 199 195 191 192 188 183 181 169 9 3 359
222 222 224 222 220 221 215 215 218 218 218 218 220 219 214 211 212 209 209 206 207 204 201 193 185 188 188 192 193 192 189 189 189 186 188 191 184 187 188 6 337 313 310
218 223 225 227 222 217 216 219 218 221 221 220 221 220 217 216 214 212 211 208 204 199 201 200 193 190 194 194 192 190 187 188 185 186 185 183 179 191 210 260 292 304 307
222 224 227 223 225 219 216 218 219 220 220 220 217 219 221 221 220 218 215 207 202 200 196 193 194 194 197 198 193 186 187 188 187 187 184 183 192 208 238 272 291 288 302
221 220 225 223 226 223 218 220 222 222 220 220 218 216 218 218 218 218 217 212 203 195 191 193 197 200 201 199 194 189 193 192 190 192 192 199 208 231 251 269 282 296 301
223 227 225 227 228 226 220 220 222 225 223 219 221 216 214 213 215 215 210 207 204 200 202 200 201 204 204 205 201 196 197 201 202 196 204 204 218 227 245 260 275 287 302
225 220 221 226 226 227 225 223 222 221 223 223 223 216 217 213 212 210 205 204 202 202 203 206 209 211 211 205 202 200 197 202 205 210 217 230 228 237 245 254 270 281 295
226 224 224 222 224 224 226 225 224 221 221 220 221 215 218 215 212 208 204 201 201 202 204 206 212 208 208 203 203 204 208 213 219 222 228 237 245 249 247 252 269 279 299
228 226 224 224 223 224 226 226 225 222 217 216 215 215 217 215 211 207 203 202 201 202 203 204 205 204 205 207 211 215 219 223 230 236 243 246 252 257 268 272 258 283 292